Location: *
(49.5667°N, 1.3667°W)
Time: 23:24:09
(UTC+00:00)

BREEZE-M DEB (TANK) - Pass Details

Date: 20 September 2019
Orbit: 305 x 14272 km, 49.5° (Epoch: 14 October)

Event Time Altitude Azimuth Distance (km) Brightness Sun altitude
Rises 18:19:53 0° 282° (WNW) 2,642 8.8 -2.6°
Reaches altitude 10° 18:21:15 10° 280° (W) 2,038 7.6 -2.9°
Maximum altitude 18:25:24 77° 194° (SSW) 1,184 4.3 -3.5°
Drops below altitude 10° 18:41:20 10° 113° (ESE) 7,166 7.6 -6.1°
Enters shadow 18:46:14 - 113° (ESE) 8,845 8.1 -6.9°
